DUBAISAT-2

Last updated on Mon Jun 22 2026 00:02:51 GMT+0000 (Coordinated Universal Time)

1 39419U 13066D 26172.51011340 .00004601 00000+0 28495-3 0 9996 2 39419 97.4570 162.5409 0011910 26.7745 333.4097 15.10212102687049
UTC large
Height (km)
Speed (km/s)
/
Latitude / Longitude
Inclination (degrees)
Orbital Period (minutes)
Azimuth
Elevation
Range (km)
Doppler Factor

Next 0 passes for location: London (51.5072 / 0.1276)

No passes found over London.
DUBAISAT-2